Change the Weather History Date:

Thursday, August 29, 2013

  Actual Average Record
Temperature  
Mean Temperature 60 °F -  
Max Temperature 68 °F - - ()
Min Temperature 51 °F - - ()
Degree Days  
Heating Degree Days 4    
Growing Degree Days 10 (Base 50)    
Moisture  
Dew Point 51 °F    
Average Humidity 68    
Maximum Humidity 88    
Minimum Humidity 49    
Precipitation  
Precipitation 0.00 in - - ()
Sea Level Pressure  
Sea Level Pressure 29.73 in    
Wind  
Wind Speed 13 mph ()    
Max Wind Speed 25 mph    
Max Gust Speed 43 mph    
Visibility 6.2 miles    
Events      
T = Trace of Precipitation, MM = Missing Value Source: Averaged Metar Reports

Daily Weather History Graph

Daily Weather History Graph

Search for Another Location

Airport or City:

Trip Planner

Search our weather history database for the weather conditions in past years. The results will help you decide how hot, cold, wet, or windy it might be!

Date:

Astronomy

Aug. 29, 2013 Rise Set
Actual Time 6:41 AM ACST 6:00 PM ACST
Civil Twilight 6:16 AM ACST 6:25 PM ACST
Nautical Twilight 5:48 AM ACST 6:54 PM ACST
Astronomical Twilight 5:19 AM ACST 7:22 PM ACST
Moon 1:12 AM ACST (8/29) 11:46 AM ACST (8/29)
Length of Visible Light 12h 08m
Length of Day
11h 18m
Last Quarter, 43% of the Moon is Illuminated
Aug 29
Last Quarter
Sep 5
New
Sep 13
First Quarter
Sep 19
Full
Sep 27
Last Quarter

Hourly Weather History & Observations

Time (ACST) Temp. Dew Point Humidity Pressure Visibility Wind Dir Wind Speed Gust Speed Precip Events Conditions
12:30 AM 60.8 °F 53.6 °F 77% 29.74 in 6.2 mi SSE 2.3 mph - N/A   Scattered Clouds
1:30 AM 59.0 °F 53.6 °F 82% 29.68 in 6.2 mi SSW 9.2 mph - N/A   Unknown
2:20 AM 60.8 °F 53.6 °F 77% 29.65 in 6.2 mi SSE 9.2 mph - N/A   Overcast
2:30 AM 60.8 °F 53.6 °F 77% 29.65 in 6.2 mi SE 3.5 mph - N/A   Mostly Cloudy
2:58 AM 66.2 °F 48.2 °F 52% 29.65 in 6.2 mi North 18.4 mph 42.6 mph N/A   Mostly Cloudy
3:00 AM 68.0 °F 48.2 °F 49% 29.65 in 6.2 mi North 20.7 mph 42.6 mph N/A   Mostly Cloudy
3:30 AM 62.6 °F 50.0 °F 63% 29.65 in 6.2 mi North 9.2 mph - N/A   Mostly Cloudy
4:30 AM 59.0 °F 53.6 °F 82% 29.68 in 6.2 mi WNW 13.8 mph - N/A   Overcast
5:30 AM 59.0 °F 55.4 °F 88% 29.62 in 6.2 mi NNE 18.4 mph - N/A   Mostly Cloudy
6:30 AM 60.8 °F 53.6 °F 77% 29.62 in 6.2 mi North 16.1 mph - N/A   Unknown
7:30 AM 60.8 °F 53.6 °F 77% 29.68 in 6.2 mi NW 15.0 mph - N/A   Unknown
8:30 AM 60.8 °F 51.8 °F 72% 29.68 in 6.2 mi NW 17.3 mph - N/A   Unknown
9:30 AM 64.4 °F 51.8 °F 64% 29.68 in 6.2 mi NW 19.6 mph - N/A   Unknown
9:48 AM 62.6 °F 50.0 °F 63% 29.68 in 6.2 mi NW 24.2 mph 36.8 mph N/A   Scattered Clouds
10:30 AM 64.4 °F 50.0 °F 59% 29.71 in 6.2 mi NW 23.0 mph - N/A   Mostly Cloudy
11:30 AM 62.6 °F 50.0 °F 63% 29.71 in 6.2 mi NW 19.6 mph - N/A   Overcast
12:30 PM 64.4 °F 51.8 °F 64% 29.71 in 6.2 mi NW 20.7 mph - N/A   Overcast
1:03 PM 62.6 °F 51.8 °F 68% 29.71 in 6.2 mi WNW 25.3 mph 40.3 mph N/A   Overcast
1:30 PM 64.4 °F 51.8 °F 64% 29.71 in 6.2 mi WNW 18.4 mph - N/A   Mostly Cloudy
1:41 PM 64.4 °F 51.8 °F 64% 29.68 in 6.2 mi WNW 18.4 mph 29.9 mph N/A   Mostly Cloudy
2:30 PM 66.2 °F 51.8 °F 60% 29.71 in 6.2 mi WNW 25.3 mph - N/A   Scattered Clouds
2:47 PM 66.2 °F 53.6 °F 64% 29.71 in 6.2 mi NW 23.0 mph 34.5 mph N/A   Scattered Clouds
3:00 PM 66.2 °F 53.6 °F 64% 29.71 in 6.2 mi NW 24.2 mph 35.7 mph N/A   Scattered Clouds
3:30 PM 66.2 °F 51.8 °F 60% 29.74 in 6.2 mi NW 24.2 mph - N/A   Scattered Clouds
4:30 PM 66.2 °F 51.8 °F 60% 29.77 in 6.2 mi WNW 16.1 mph - N/A   Mostly Cloudy
4:45 PM 66.2 °F 50.0 °F 56% 29.77 in 6.2 mi WNW 20.7 mph 32.2 mph N/A   Overcast
5:30 PM 64.4 °F 51.8 °F 64% 29.80 in 6.2 mi WNW 13.8 mph - N/A   Scattered Clouds
6:30 PM 62.6 °F 50.0 °F 63% 29.83 in 6.2 mi West 12.7 mph - N/A   Mostly Cloudy
7:30 PM 57.2 °F 50.0 °F 77% 29.86 in 6.2 mi WNW 6.9 mph - N/A   Scattered Clouds
8:30 PM 59.0 °F 48.2 °F 67% 29.89 in 6.2 mi NW 9.2 mph - N/A   Unknown
9:30 PM 53.6 °F 46.4 °F 77% 29.92 in 6.2 mi NNW 9.2 mph - N/A   Unknown
10:30 PM 53.6 °F 46.4 °F 77% 29.92 in 6.2 mi NNW 9.2 mph - N/A   Unknown
11:30 PM 51.8 °F 46.4 °F 82% 29.92 in 6.2 mi NW 8.1 mph - N/A   Unknown